Weather History for York, PA

Change the Weather History Date:

Thursday, August 8, 2013

  Actual Average Record
Temperature  
Mean Temperature 74 °F -  
Max Temperature 84 °F 87 °F 95 °F (2001)
Min Temperature 66 °F 60 °F 46 °F (2002)
Cooling Degree Days 9    
Growing Degree Days 24 (Base 50)    
Moisture  
Dew Point 67 °F    
Average Humidity 84    
Maximum Humidity 94    
Minimum Humidity 67    
Precipitation  
Precipitation 0.07 in - - ()
Sea Level Pressure  
Sea Level Pressure 30.02 in    
Wind  
Wind Speed 2 mph (SSW)    
Max Wind Speed 13 mph    
Max Gust Speed 18 mph    
Visibility 6 miles    
Events Fog , Rain    
Averages and records for this station are not official NWS values.
T = Trace of Precipitation, MM = Missing Value Source: NWS Daily Summary

Daily Weather History Graph

Daily Weather History Graph

Search for Another Location

Airport:

Trip Planner

Search our weather history database for the weather conditions in past years. The results will help you decide how hot, cold, wet, or windy it might be!

Date:

Astronomy

Aug. 08, 2013 Rise Set
Actual Time 6:12 AM EDT 8:12 PM EDT
Civil Twilight 5:43 AM EDT 8:42 PM EDT
Nautical Twilight 5:07 AM EDT 9:18 PM EDT
Astronomical Twilight 4:27 AM EDT 9:57 PM EDT
Moon 7:57 AM EDT (8/8) 8:50 PM EDT (8/8)
Length of Visible Light 14h 58m
Length of Day
13h 59m
Waxing Crescent, 3% of the Moon is Illuminated
Aug 8
Waxing Crescent
Aug 14
First Quarter
Aug 20
Full
Aug 28
Last Quarter
Sep 5
New

Hourly Weather History & Observations

Time (EDT) Temp. Heat Index Dew Point Humidity Pressure Visibility Wind Dir Wind Speed Gust Speed Precip Events Conditions
12:53 AM 69.1 °F - 66.0 °F 90% 30.03 in 10.0 mi Calm Calm - N/A   Partly Cloudy
1:53 AM 66.9 °F - 64.0 °F 90% 30.02 in 8.0 mi WNW 3.5 mph - N/A   Clear
2:53 AM 66.0 °F - 63.0 °F 90% 30.02 in 4.0 mi Calm Calm - N/A   Mostly Cloudy
2:58 AM 66.2 °F - 62.6 °F 88% 30.02 in 2.0 mi Calm Calm - N/A   Mostly Cloudy
3:01 AM 66.2 °F - 62.6 °F 88% 30.02 in 1.0 mi Calm Calm - N/A   Mostly Cloudy
3:09 AM 66.2 °F - 62.6 °F 88% 30.02 in 0.5 mi Calm Calm - N/A Fog Fog
3:53 AM 66.0 °F - 64.0 °F 93% 30.01 in 0.2 mi Calm Calm - N/A Fog Fog
4:53 AM 66.0 °F - 63.0 °F 90% 30.01 in 0.2 mi Calm Calm - N/A Fog Fog
5:53 AM 66.0 °F - 63.0 °F 90% 30.02 in 0.2 mi Calm Calm - N/A Fog Fog
6:15 AM 66.2 °F - 62.6 °F 88% 30.03 in 1.2 mi Calm Calm - N/A   Overcast
6:26 AM 66.2 °F - 62.6 °F 88% 30.03 in 0.8 mi Calm Calm - N/A   Overcast
6:34 AM 66.2 °F - 62.6 °F 88% 30.03 in 0.5 mi Calm Calm - N/A Fog Fog
6:41 AM 66.2 °F - 62.6 °F 88% 30.03 in 1.2 mi Calm Calm - N/A   Mostly Cloudy
6:45 AM 66.2 °F - 64.4 °F 94% 30.03 in 2.5 mi Calm Calm - N/A   Mostly Cloudy
6:53 AM 66.0 °F - 64.0 °F 93% 30.04 in 2.5 mi Calm Calm - N/A   Scattered Clouds
6:59 AM 66.2 °F - 64.4 °F 94% 30.03 in 3.0 mi Calm Calm - N/A   Scattered Clouds
7:08 AM 66.2 °F - 64.4 °F 94% 30.03 in 2.5 mi Calm Calm - N/A   Mostly Cloudy
7:18 AM 66.2 °F - 64.4 °F 94% 30.03 in 3.0 mi Calm Calm - N/A   Mostly Cloudy
7:26 AM 66.2 °F - 64.4 °F 94% 30.04 in 3.0 mi Calm Calm - N/A   Scattered Clouds
7:53 AM 68.0 °F - 64.9 °F 90% 30.04 in 3.0 mi Calm Calm - N/A   Scattered Clouds
8:08 AM 69.8 °F - 66.2 °F 88% 30.04 in 4.0 mi Calm Calm - N/A   Partly Cloudy
8:53 AM 72.0 °F - 68.0 °F 87% 30.04 in 5.0 mi Calm Calm - N/A   Overcast
9:53 AM 75.0 °F - 70.0 °F 84% 30.04 in 10.0 mi Variable 3.5 mph - N/A   Scattered Clouds
10:22 AM 75.2 °F - 69.8 °F 83% 30.03 in 10.0 mi Variable 3.5 mph - N/A   Mostly Cloudy
10:29 AM 77.0 °F - 69.8 °F 78% 30.03 in 10.0 mi Variable 5.8 mph - N/A   Mostly Cloudy
10:53 AM 78.1 °F - 70.0 °F 76% 30.03 in 10.0 mi Variable 3.5 mph - N/A   Overcast
11:04 AM 78.8 °F - 69.8 °F 74% 30.03 in 10.0 mi SSW 5.8 mph - N/A   Overcast
11:14 AM 78.8 °F - 69.8 °F 74% 30.03 in 10.0 mi SSW 5.8 mph - N/A   Mostly Cloudy
11:53 AM 80.1 °F 82.9 °F 69.1 °F 69% 30.02 in 10.0 mi SW 8.1 mph - N/A   Partly Cloudy
12:53 PM 82.0 °F 85.9 °F 70.0 °F 67% 30.01 in 10.0 mi SW 8.1 mph - N/A   Overcast
1:53 PM 80.1 °F 82.9 °F 69.1 °F 69% 30.02 in 10.0 mi South 6.9 mph - 0.00 in Rain Light Rain
2:53 PM 82.9 °F 87.5 °F 71.1 °F 67% 30.01 in 10.0 mi SSW 5.8 mph - 0.00 in   Overcast
3:53 PM 82.0 °F 85.9 °F 70.0 °F 67% 29.99 in 10.0 mi SSW 8.1 mph - N/A   Mostly Cloudy
4:53 PM 82.0 °F 85.9 °F 70.0 °F 67% 29.98 in 10.0 mi SSW 9.2 mph - N/A   Partly Cloudy
5:53 PM 82.0 °F 85.9 °F 70.0 °F 67% 29.98 in 10.0 mi SSW 6.9 mph - N/A   Clear
6:53 PM 79.0 °F - 70.0 °F 74% 29.99 in 10.0 mi SSW 12.7 mph 18.4 mph 0.00 in Rain Light Rain
7:53 PM 73.9 °F - 69.1 °F 85% 29.99 in 10.0 mi Calm Calm - 0.06 in   Mostly Cloudy
8:53 PM 73.9 °F - 69.1 °F 85% 29.99 in 10.0 mi Variable 3.5 mph - 0.00 in   Clear
9:53 PM 73.9 °F - 70.0 °F 87% 30.01 in 10.0 mi Variable 3.5 mph - N/A   Mostly Cloudy
10:53 PM 73.9 °F - 70.0 °F 87% 30.00 in 10.0 mi Variable 3.5 mph - N/A   Partly Cloudy
11:53 PM 75.0 °F - 71.1 °F 87% 29.98 in 8.0 mi Calm Calm - 0.01 in   Partly Cloudy